Regional Weather Roundup
Issued by NWS

Home | Current Version | Previous Version | Text Only | Print | Product List | Glossary On
Versions: 1 2 3 4 5 6 7 8 9 10 11 12 13 14 15 16 17 18 19 20 21 22 23 24 25 26 27 28 29 30 31 32 33 34 35 36 37 38 39 40 41 42 43 44 45 46 47 48 49 50
000
ASHW40 PHFO 251643
RWRHI

WEATHER ROUNDUP FOR HAWAII
NATIONAL WEATHER SERVICE HONOLULU HI
600 AM HST SAT APR 25 2015

THIS IS AN AUTOMATED REPORT THAT HAS NOT BEEN QUALITY CONTROLLED.

NOTE..."FAIR" INDICATES FEW OR NO CLOUDS BELOW 12,000 FEET WITH NO
SIGNIFICANT WEATHER AND/OR OBSTRUCTIONS TO VISIBILITY.

* - THESE SITES REPORT LIMITED FIELDS

HIZ001>004-251700-
KAUAI-NIIHAU-

CITY           SKY/WX    TMP DP  RH WIND       PRES   REMARKS
LIHUE APT      CLOUDY    75  68  78 SW13G21   29.95R
PORT ALLEN*      N/A     77 N/A N/A S13         N/A
POIPU*           N/A     77 N/A N/A S7G15       N/A
PRINCEVILLE*     N/A     75 N/A N/A MISG        N/A
KOKOLE POINT*  NOT AVBL
MOLOAA DAIRY*  NOT AVBL
WAIMEA HTS*      N/A     73  68  83 S7G13       N/A
PUU OPAE*        N/A     66  66 100 SE12G17     N/A
PUU LUA*       NOT AVBL
MAKAHA RIDGE*    N/A     68  63  83 SE6G20      N/A
$$

HIZ005>011-251700-
OAHU-

CITY           SKY/WX    TMP DP  RH WIND       PRES   REMARKS
HONOLULU       PTCLDY    70  68  93 SE6       29.96R
KALAELOA         N/A     75  70  84 SE10      29.98R
KANEOHE MCB    CLOUDY    74  67  78 S8        29.93R
WHEELER FIELD  LGT RAIN  70  68  94 VRB3      29.98R FOG
BELLOWS*         N/A    N/A N/A N/A S7G13       N/A
KAHUKU*          N/A    N/A N/A N/A CALM        N/A
WHEELER*       NOT AVBL
WAIANAE HARBOR NOT AVBL
DILLINGHAM*      N/A     70  66  88 MISG        N/A
KAHUKU TRN*      N/A     68  64  88 S3          N/A
KAWAILOA*        N/A     68  66  94 S5G12       N/A
KII*             N/A     70  66  88 CALM        N/A
MAKUA RANGE*     N/A     75  68  78 SW5G12      N/A
OAHU FOREST NW   N/A    N/A N/A N/A CALM        N/A
SCHOFIELD BRK*   N/A     68  66  94 MISG        N/A
SCHOFIELD S*   NOT AVBL
WAIANAE VLY*     N/A     70  70 100 SE2G9       N/A
KUAOKALA*        N/A     72  70  94 S18G25      N/A
HONOULIUULI*   NOT AVBL
MOKUOLOE IS*   NOT AVBL
PALEHUA*         N/A     66  64  94 S6G14       N/A
WAIAWA PHB*    NOT AVBL
$$

HIZ012>013-251700-
MOLOKAI-

CITY           SKY/WX    TMP DP  RH WIND       PRES   REMARKS
MOLOKAI AIRPT  MOCLDY    66  64  93 CALM      29.98R
KALAUPAPA      NOT AVBL
MAKAPULAPAI*     N/A     72  64  78 SW3         N/A
MOLOKAI 1*       N/A    N/A N/A N/A CALM        N/A
PUU ALII*        N/A     55  55  99 CALM        N/A
$$

HIZ016-251700-
KAHOOLAWE-

CITY           SKY/WX    TMP DP  RH WIND       PRES   REMARKS
KAHOOLAWE*       N/A     66 N/A N/A N7          N/A
HAKIOAWA*        N/A     66  63  89 MISG        N/A
HONOKANAIA*      N/A     71  64  78 N6        29.97R
KANELOA*         N/A     70  63  78 MISG      29.18R
KEALIALALO*      N/A     70  64  83 E3        29.98R
LUA MAKIKA*    NOT AVBL
$$

HIZ014>015-251700-
LANAI-

CITY           SKY/WX    TMP DP  RH WIND       PRES   REMARKS
LANAI CITY     CLOUDY    66  66 100 CALM      30.02S
LANAI 1*         N/A     70  68  94 S3          N/A
$$

HIZ017>028-251700-
MAUI-

CITY           SKY/WX    TMP DP  RH WIND       PRES   REMARKS
KAHULUI        PTCLDY    67  62  84 SE6       29.97R
KAPALUA-W MAUI PTCLDY    70  61  73 SE7       29.97
HANA AIRPORT   LGT RAIN  73  68  83 E3        30.00S
HANA*            N/A     72 N/A N/A S2          N/A
HALEAKALA SUMM   N/A     50  28  43 NW13        N/A
MAALAEA BAY*   NOT AVBL
HALEAKALA*     NOT AVBL
KAUPO GAP*       N/A     55  46  71 NW7G14      N/A
KULA 1*          N/A    N/A N/A N/A E3G9        N/A
$$

HIZ023>026-251700-
BIG ISLAND OF HAWAII COAST AND LOWER SLOPES-

CITY           SKY/WX    TMP DP  RH WIND       PRES   REMARKS
KAILUA KONA    PTCLDY    73  66  78 NE6       29.95S
HILO           PTCLDY    68  65  90 SW6       30.00R
HONOKAA*       NOT AVBL
KAWAIHAE MWT*    N/A     73 N/A N/A E5          N/A
KAWAIHAE*        N/A     75 N/A N/A E2          N/A
SOUTH POINT*     N/A     66 N/A N/A NE10        N/A
UPOLU AIRPORT*   N/A    N/A N/A N/A SE8         N/A
KAMUELA*       SUNNY     55  54  94 CALM      30.08R
HAKALAU*         N/A    N/A N/A N/A SW3G9       N/A
KALOKO-HONOKO*   N/A     70  59  68 NW2       29.95R
PALI 2*          N/A     61  59  94 NE3         N/A
KEALAKOMO*       N/A     75  66  73 E7G13       N/A
KAUPULEHU*       N/A     68  61  77 SE7         N/A
KAPAPALA*        N/A     63  57  82 NW3         N/A
LOWER KAHUKU*    N/A     57  55  94 N2G8        N/A
PUHE CS*         N/A     73  63  68 E6G12       N/A
PUHO CS*         N/A     73  58  59 E3          N/A
PTA KEAMUKU*     N/A     54  50  87 CALM        N/A
WAIKOLOA*        N/A     66  52  59 SE7         N/A
$$

HIZ027>028-251700-
BIG ISLAND OF HAWAII INTERIOR AND SUMMMITS-

CITY           SKY/WX    TMP DP  RH WIND       PRES   REMARKS
BRADSHAW FIELD CLOUDY    40  24  54 SE5       30.26S
MK VISITOR CEN   N/A      0   0 100 MISG        N/A
MAUNA KEA*       N/A     39   5  24 N12         N/A
MAUNA LOA*       N/A     45   7  21 MISG        N/A
MAUNA LOA 1*   NOT AVBL
PTA KIPUKA*      N/A     45  41  87 E3          N/A
PTA RANGE 17*    N/A     48  45  87 E5          N/A
PTA WEST*        N/A     72  68  88 SE12        N/A
NENE CABIN*      N/A     45  39  81 NE3         N/A
AHUMOA*          N/A    N/A N/A N/A NE5         N/A
PTA PORTABLE*  NOT AVBL
PUU MALI*        N/A     54  14  20 W3G12       N/A
$$

HIC003-251700-
NORTHWEST ISLANDS-

CITY           SKY/WX    TMP DP  RH WIND       PRES   REMARKS
MIDWAY ISLAND  MOCLDY    63  63 100 NE18G26   30.21R
MIDWAY NOS*    NOT AVBL
FRENCH FRIGATE NOT AVBL
$$

PHZ110>124-180-251700-
BUOY REPORTS

STATION/POSITION TIME  TEMP    WIND        PRES    WAVE   SWELL
                       AIR SEA DIR/SP/G            HT/PER HT/DIR
                 (UTC) (F)     (DEG/KT/KT) (MB)    (FT/S) (FT/D)
BUOY 51001       NOT AVBL
BUOY 51101       1600   72 75  260/ 10/ 14 1011.8R   7/ 9   7/ 80
BUOY 51100       NOT AVBL
BUOY 51002       1600   78 79  110/ 14/ 17 1013.2R   8/10   7/100
BUOY 51003       1600   78 79  160/ 16/ 17 1013.4R   7/ 9   5
BUOY 51004       1540   74 77  120/ 17/ 21 1014.6R   8/ 9   5/ 90
BARBERS PT BUOY  NOT AVBL
WAIMEA BAY BUOY  1600      78                N/A     5/11
KAILUA BAY BUOY  1600      76                N/A     7/ 9   2/ 90
LANAI BUOY       1600      77                N/A     5/13   2/180
BARBERS PT 2     1600      78                N/A     6/13   3/180
PAUWELA MAUI     1600      76                N/A     6/ 9   2/ 90
HILO             1600      77                N/A     8/ 8   2/120
KANEOHE BAY BUOY 1600      76                N/A     6/ 7   2/ 60
HANALEI KAUAI    1600      78                N/A     7/ 9
KAHULUI HARBOR   1600   69 78  180/  3/  4 1014.4R
HONOLULU HARBOR  1600   74 79   90/  4/  8 1015.0R
KILO NALU        NOT AVBL
HILO HARBOR      1600   70 75  220/  4/  5 1015.5R
MOKUOLOE         1600   74 78  180/  7/ 12 1014.0S
NAWILIWILI       1600   77 78  230/  5/ 11 1013.8R
WHOTS BUOY       NOT AVBL
BUOY 51028       NOT AVBL
$$

......................KEY........................................
  SKY/WX - SKY CONDITIONS/PRESENT WEATHER
  TMP    - TEMPERATURE IN FAHRENHEIT
  DWPT   - DEWPOINT IN FAHRENHEIT
  RH     - RELATIVE HUMIDITY IN PERCENT
  WIND   - DIRECTION AND SPEED /MPH FOR ISLANDS...KTS FOR BUOYS/
  PRES   - MEAN SEA LEVEL PRESSURE IN INCHES OF HG
  VSB    - VISIBILITY IN MILES
  HX     - HEAT INDEX
  WCI    - WIND CHILL INDEX
  VRB    - VARIABLE WIND DIRECTION
  N/A    - NOT AVAILABLE


USA.gov is the U.S. government's official web portal to all federal, state and local government web resources and services.